Location: Newark
(47.3150°N, 5.1150°E)
Time: 12:45:26
(UTC+00:00)

Envisat - Pass Details

Date: 22 October 2019
Orbit: 764 x 766 km, 98.1° (Epoch: 14 November)

Event Time Altitude Azimuth Distance (km) Brightness Sun altitude
Rises 04:59:16 0° 34° (NE) 3,242 6.7 -12.2°
Reaches altitude 10° 05:04:00 10° 74° (ENE) 2,306 6.7 -11.4°
Maximum altitude 05:04:54 10° 85° (E) 2,275 6.9 -11.3°
Drops below altitude 10° 05:05:49 10° 95° (E) 2,303 7.1 -11.1°
Sets 05:10:30 0° 135° (SE) 3,220 7.1 -10.3°
